Montgomery, AL

2:33 AM CDT on April 20, 2018 (GMT -0500)
Montgomery Regional

Weather History for KMGM - September, 2013

Change the Weather History Date:

Friday, September 6, 2013

  Actual Average Record
Temperature  
Mean Temperature 79 °F 79 °F  
Max Temperature 90 °F 90 °F 104 °F (1925)
Min Temperature 68 °F 68 °F 55 °F (1997)
Degree Days  
Heating Degree Days 0 0  
Month to date heating degree days 0 0  
Since 1 July heating degree days 0 0  
Cooling Degree Days 14 14  
Month to date cooling degree days 103 87  
Year to date cooling degree days 1925 1876  
Growing Degree Days 29 (Base 50)    
Moisture  
Dew Point 67 °F    
Average Humidity 70    
Maximum Humidity 93    
Minimum Humidity 47    
Precipitation  
Precipitation 0.00 in 0.14 in 1.73 in (1890)
Month to date precipitation 0.10 0.85  
Year to date precipitation 43.11 37.56  
Sea Level Pressure  
Sea Level Pressure 30.06 in    
Wind  
Wind Speed 2 mph (NW)    
Max Wind Speed 8 mph    
Max Gust Speed 12 mph    
Visibility 9 miles    
Events      
T = Trace of Precipitation, MM = Missing Value Source: NWS Daily Summary

Daily Weather History Graph

Daily Weather History Graph

Search for Another Location

Airport or City:

Astronomy

Sep. 06, 2013 Rise Set
Actual Time 6:23 AM CDT 7:03 PM CDT
Civil Twilight 5:59 AM CDT 7:27 PM CDT
Nautical Twilight 5:29 AM CDT 7:57 PM CDT
Astronomical Twilight 5:00 AM CDT 8:26 PM CDT
Moon 7:28 AM CDT (9/6) 7:36 PM CDT (9/6)
Length of Visible Light 13h 28m
Length of Day
12h 39m
New Moon, 2% of the Moon is Illuminated
Sep 6
New Moon
Sep 12
First Quarter
Sep 19
Full
Sep 26
Last Quarter
Oct 4
New

Hourly Weather History & Observations

Time (CDT) Temp. Heat Index Dew Point Humidity Pressure Visibility Wind Dir Wind Speed Gust Speed Precip Events Conditions
12:53 AM 71.1 °F - 68.0 °F 90% 30.09 in 9.0 mi Calm Calm - N/A   Clear
1:53 AM 71.1 °F - 68.0 °F 90% 30.08 in 10.0 mi Calm Calm - N/A   Clear
2:53 AM 70.0 °F - 66.9 °F 90% 30.07 in 6.0 mi Calm Calm - N/A   Clear
3:53 AM 68.0 °F - 66.0 °F 93% 30.07 in 5.0 mi Calm Calm - N/A   Clear
4:53 AM 69.1 °F - 64.9 °F 87% 30.07 in 9.0 mi Calm Calm - N/A   Clear
5:53 AM 69.1 °F - 66.0 °F 90% 30.08 in 9.0 mi North 3.5 mph - N/A   Clear
6:53 AM 68.0 °F - 64.9 °F 90% 30.09 in 7.0 mi Calm Calm - N/A   Clear
7:53 AM 73.0 °F - 66.9 °F 81% 30.10 in 10.0 mi North 3.5 mph - N/A   Clear
8:53 AM 77.0 °F - 68.0 °F 74% 30.12 in 10.0 mi North 4.6 mph - N/A   Clear
9:53 AM 81.0 °F 83.8 °F 68.0 °F 65% 30.12 in 10.0 mi Variable 3.5 mph - N/A   Clear
10:53 AM 82.9 °F 85.8 °F 68.0 °F 60% 30.12 in 10.0 mi Calm Calm - N/A   Clear
11:53 AM 86.0 °F 88.2 °F 66.0 °F 51% 30.11 in 10.0 mi Calm Calm - N/A   Partly Cloudy
12:53 PM 89.1 °F 92.1 °F 66.9 °F 48% 30.09 in 10.0 mi Variable 3.5 mph - N/A   Partly Cloudy
1:53 PM 89.1 °F 92.1 °F 66.9 °F 48% 30.08 in 10.0 mi Calm Calm - N/A   Mostly Cloudy
2:53 PM 90.0 °F 92.8 °F 66.9 °F 46% 30.05 in 10.0 mi Variable 5.8 mph - N/A   Scattered Clouds
3:53 PM 89.1 °F 91.3 °F 66.0 °F 46% 30.02 in 10.0 mi NW 3.5 mph - N/A   Partly Cloudy
4:53 PM 89.1 °F 91.3 °F 66.0 °F 46% 30.01 in 10.0 mi NW 5.8 mph - N/A   Clear
5:53 PM 87.1 °F 89.9 °F 66.9 °F 51% 30.01 in 10.0 mi WNW 4.6 mph - N/A   Clear
6:53 PM 82.0 °F 84.9 °F 68.0 °F 62% 30.01 in 10.0 mi West 4.6 mph - N/A   Clear
7:53 PM 77.0 °F - 71.1 °F 82% 30.02 in 10.0 mi SW 3.5 mph - N/A   Clear
8:53 PM 77.0 °F - 70.0 °F 79% 30.04 in 10.0 mi Calm Calm - N/A   Clear
9:53 PM 75.0 °F - 71.1 °F 87% 30.04 in 9.0 mi SW 3.5 mph - N/A   Clear
10:53 PM 75.9 °F - 70.0 °F 82% 30.04 in 10.0 mi Calm Calm - N/A   Scattered Clouds
11:53 PM 75.9 °F - 70.0 °F 82% 30.03 in 10.0 mi Calm Calm - N/A   Partly Cloudy